Location: Arrodets-la-Barthe
(43.0306°N, 0.2829°E)
Time: 19:42:06
(UTC+00:00)

H-2A R/B - Pass Details

Date: 24 October 2021
Orbit: 577 x 654 km, 98.5° (Epoch: 02 December)

Event Time Altitude Azimuth Distance (km) Brightness Sun altitude
Exits shadow 18:50:54 43° 41° (NE) 841 2.4 -20.5°
Maximum altitude 18:52:05 63° 102° (ESE) 665 1.9 -20.8°
Drops below altitude 10° 18:56:15 10° 184° (S) 1,937 4.6 -21.5°
Sets 18:58:26 0° 187° (S) 2,848 5.5 -21.9°
